Wind_Speed
4 4 4 4 4 4 4 4 3 1 1 1 2 3 3 3 3 3 3 2 2 2 3 4 5 5 5 5 6 6 7 8 8 9 10 11 12 12 12 12 12 13 13
6 5 6 5 5 4 5 4 3 2 2 2 3 3 2 2 2 1 2 2 2 3 3 4 4 5 6 7 7 7 7 8 9 9 11 12 12 12 12 13 13 13 13
6 6 6 5 4 4 4 3 3 3 3 3 3 2 2 2 2 2 1 2 3 4 4 5 6 6 7 8 8 8 8 9 9 10 12 12 13 13 14 13 13 13 14
6 5 5 4 4 4 3 3 3 3 3 3 3 2 2 3 3 3 2 2 3 4 5 6 6 7 7 8 8 8 8 9 10 11 12 12 12 13 14 14 14 14 15
6 4 4 4 3 3 3 3 2 2 2 3 3 4 4 3 3 3 3 3 4 5 6 6 7 7 7 8 8 9 9 9 9 10 12 12 13 13 13 14 14 15 15
6 6 5 4 4 3 3 3 3 3 3 4 4 4 4 3 3 3 4 4 5 6 7 7 8 8 8 8 9 9 9 9 9 10 10 12 12 13 14 15 15 16 16
7 7 6 5 4 4 4 4 4 3 4 4 4 5 5 5 4 5 5 5 6 7 7 7 8 8 9 9 8 9 10 11 10 11 11 12 13 13 14 15 16 16 17
7 7 6 5 4 5 5 5 5 4 4 4 5 6 6 6 6 6 7 7 7 8 7 8 9 9 10 10 10 10 11 12 12 13 13 13 13 14 14 14 15 17 17
6 7 6 6 6 5 5 5 5 5 5 5 6 6 6 6 7 7 8 8 9 8 8 9 10 11 11 11 12 12 12 12 13 13 13 13 13 14 14 14 15 16 17
6 6 6 7 7 6 6 6 6 6 6 7 7 7 8 8 8 8 9 9 10 10 10 10 11 12 12 13 13 14 14 13 13 14 14 14 14 15 16 16 16 16 17
8 7 7 8 8 8 7 7 7 7 8 8 8 9 9 10 11 11 11 11 11 12 12 12 13 13 14 14 14 15 15 14 14 15 15 15 15 16 16 17 16 16 17
8 8 8 8 9 9 9 8 8 9 9 9 9 10 11 12 13 13 13 13 13 14 14 14 14 15 15 16 16 16 16 16 16 17 16 17 17 17 17 17 17 18 18
9 9 9 9 10 10 10 10 10 11 11 11 12 12 12 13 14 14 15 15 15 16 16 16 16 17 17 18 17 18 18 18 19 19 18 19 18 18 18 19 19 19 20
11 11 11 11 12 12 12 12 12 13 13 13 13 14 14 15 16 16 17 17 17 17 18 18 18 18 19 19 19 20 20 20 20 20 20 20 19 20 19 20 20 20 20
13 13 13 13 13 13 13 13 13 14 15 15 16 16 16 17 17 17 18 18 19 19 18 19 20 20 20 21 21 21 22 22 22 21 21 21 21 20 21 21 21 21 21
14 15 15 14 14 14 14 15 16 16 17 17 18 18 18 18 19 19 19 20 20 20 20 21 22 22 22 22 22 22 23 23 23 23 22 22 23 23 23 23 23 22 22
15 16 16 16 16 16 16 17 18 18 19 19 19 20 20 20 21 20 20 20 21 22 22 23 24 24 24 24 25 25 25 25 25 25 25 25 25 25 25 25 24 23 23
18 18 17 17 18 18 19 19 20 21 21 21 21 22 22 21 22 22 21 22 23 23 24 25 25 25 25 26 27 27 27 27 27 26 26 26 26 26 26 25 24 24 24
19 19 19 19 20 21 21 22 22 23 23 23 23 24 24 24 24 23 23 24 25 25 26 25 26 26 27 28 28 28 28 27 27 27 26 26 26 26 26 26 26 25 24
21 21 21 22 22 23 23 24 24 25 25 25 25 25 25 25 26 26 26 26 26 27 27 26 27 28 28 29 29 29 28 27 27 27 27 26 26 27 27 27 26 26 25
23 23 23 24 24 25 26 26 26 26 27 27 27 27 27 28 29 29 28 28 28 28 27 26 26 27 28 28 28 28 28 28 28 28 27 28 28 28 28 27 27 26 26
24 25 26 26 27 27 28 28 28 28 29 29 29 29 29 29 29 30 29 29 28 28 27 27 27 27 27 28 27 28 28 28 27 28 27 28 29 28 28 28 27 27 27
26 26 27 27 28 28 29 29 30 30 31 31 30 30 30 30 30 30 30 29 29 29 29 29 29 28 28 28 28 28 28 28 28 28 27 27 28 28 28 28 27 27 27
28 28 28 29 29 29 30 30 31 31 31 31 31 30 30 30 30 30 30 30 30 30 30 30 30 30 29 29 29 29 28 28 28 28 28 27 27 27 28 28 28 27 27
28 29 29 30 30 30 30 31 32 32 32 32 32 31 31 30 30 31 30 30 29 29 30 30 30 30 30 30 30 29 29 29 28 28 28 28 28 28 28 29 29 28 28
30 31 31 30 30 31 31 32 32 32 32 32 31 31 31 30 31 30 30 29 29 29 29 30 30 30 29 29 29 29 29 28 28 27 28 28 28 29 29 29 29 28 28
Wind_Direction
83 78 68 70 61 61 46 37 25 350 296 282 305 309 309 280 273 291 280 284 271 263 267 272 275 272 275 274 268 268 265 263 260 256 251 249 253 256 256 256 260 260 257
78 83 76 75 65 55 48 49 47 33 13 348 331 320 325 335 301 315 281 292 295 284 282 283 283 284 279 277 277 271 268 268 266 261 259 259 259 259 258 261 260 258 255
64 62 67 67 61 52 41 38 34 28 10 352 339 340 343 354 358 346 342 312 292 283 279 283 286 285 282 280 281 277 273 273 270 265 263 263 263 261 262 263 262 262 258
54 51 50 46 46 45 43 35 27 17 3 3 2 1 8 3 8 5 334 310 297 291 287 286 289 287 283 281 282 279 280 284 277 274 268 267 265 263 263 264 262 262 260
43 41 38 39 42 33 31 28 24 22 3 359 2 10 13 7 358 345 324 304 296 293 292 290 286 285 283 281 284 283 285 287 280 277 275 271 266 264 264 263 262 263 261
31 31 31 30 34 29 15 7 10 8 6 360 1 2 360 355 341 330 318 308 301 297 295 292 288 284 282 286 285 283 284 283 282 276 278 274 268 268 268 265 265 263 262
26 24 22 19 20 14 5 0 357 349 352 353 349 345 342 340 330 317 314 313 309 309 308 300 291 289 288 287 286 286 284 281 278 277 281 279 275 273 274 269 267 266 264
18 18 17 14 10 5 357 347 344 345 343 338 339 335 332 330 322 315 312 312 312 311 311 309 302 296 292 289 288 286 286 285 283 283 282 279 276 275 274 274 273 269 266
2 3 4 2 0 356 349 345 339 335 325 320 325 323 322 324 320 316 312 312 312 309 306 307 303 299 295 291 288 288 286 286 285 286 288 284 280 279 278 281 280 275 269
339 344 346 344 340 341 340 335 330 324 317 315 315 314 311 311 310 308 305 304 304 302 301 301 300 299 295 292 289 290 289 288 288 287 288 288 286 284 282 285 284 278 272
334 333 333 336 336 336 330 325 319 316 313 312 313 312 309 307 306 305 304 301 299 299 298 297 296 295 295 294 292 292 291 288 290 287 287 285 287 287 285 284 284 280 276
328 328 328 327 327 325 321 318 312 311 312 311 311 309 307 307 304 301 299 299 298 298 298 297 294 293 295 295 293 293 292 291 289 288 287 285 286 286 283 281 281 281 281
320 322 323 322 318 315 315 314 312 311 310 310 309 306 302 302 303 299 295 296 295 294 295 295 293 292 294 294 292 291 292 292 291 289 287 286 286 286 282 281 280 282 281
316 316 318 318 315 311 310 310 307 307 306 306 306 304 301 299 299 299 295 294 294 292 292 292 291 291 293 293 293 290 289 290 291 291 289 288 286 287 284 282 282 284 282
318 315 317 317 314 313 312 310 311 308 305 304 303 302 301 300 299 299 295 292 291 291 291 290 290 292 292 291 291 291 290 289 289 289 289 287 286 284 284 284 285 286 284
313 313 312 315 315 312 311 310 308 308 306 304 304 303 301 300 298 295 293 290 289 289 289 289 290 290 291 291 290 289 289 288 286 285 285 285 285 286 285 286 286 286 284
308 310 308 309 311 309 306 306 306 304 302 301 302 302 300 297 296 295 293 290 289 289 289 289 290 290 290 290 289 288 287 286 285 285 285 284 284 286 287 286 286 286 284
303 304 305 304 306 305 304 303 303 303 300 299 300 300 299 298 297 295 293 292 290 288 290 290 289 289 288 288 288 288 288 286 285 284 284 283 284 285 286 287 286 287 284
302 302 302 301 300 301 301 301 300 300 299 300 300 299 298 296 296 293 293 296 296 293 292 291 289 288 286 287 287 287 288 287 285 285 283 283 283 284 284 285 286 286 285
300 300 299 300 299 299 299 298 299 299 297 296 297 297 296 295 295 294 294 295 296 296 294 291 290 288 288 287 287 286 286 286 286 284 283 283 284 284 283 283 284 283 282
298 298 298 298 297 297 297 297 297 297 297 296 295 294 293 294 295 295 295 294 293 294 294 293 291 290 289 287 288 286 285 285 285 284 283 283 283 283 283 282 281 281 280
297 297 297 297 297 297 297 297 297 297 296 295 295 295 295 295 295 295 294 294 293 293 293 293 293 292 290 289 289 289 289 287 286 285 285 284 284 283 282 283 283 283 281
296 296 296 297 297 296 296 296 296 295 294 294 294 294 294 294 294 294 292 291 291 291 292 292 293 293 291 290 289 289 288 288 286 286 287 287 286 284 282 281 282 282 282
295 296 296 296 296 295 295 295 295 295 295 294 292 293 293 293 294 294 293 290 291 292 291 291 293 293 290 289 289 290 289 287 286 285 285 286 285 285 283 282 281 281 280
296 296 296 296 296 296 295 295 295 294 294 293 292 292 293 294 294 295 294 291 291 292 291 291 292 293 291 289 289 289 289 289 288 286 285 284 283 283 283 283 283 282 280
295 295 294 295 296 295 295 294 294 294 294 293 292 292 292 292 293 294 294 292 291 291 293 292 291 291 291 290 290 290 289 289 288 287 285 284 284 284 283 284 286 284 279
Height
5876 5876 5876 5876 5876 5875 5874 5874 5873 5873 5872 5872 5872 5871 5871 5870 5870 5870 5869 5869 5869 5869 5869 5868 5868 5868 5868 5867 5867 5867 5867 5867 5867 5867 5867 5868 5868 5868 5869 5869 5870 5870 5870
5877 5877 5877 5877 5877 5876 5876 5875 5874 5874 5874 5873 5872 5872 5871 5870 5870 5869 5869 5868 5868 5868 5868 5868 5867 5867 5867 5866 5866 5866 5865 5865 5865 5865 5865 5865 5865 5866 5866 5866 5866 5867 5867
5879 5879 5878 5878 5878 5877 5876 5876 5875 5874 5874 5873 5872 5872 5871 5870 5869 5869 5868 5868 5868 5868 5868 5867 5866 5866 5865 5865 5864 5863 5863 5863 5863 5863 5863 5863 5862 5863 5863 5863 5863 5864 5864
5881 5880 5880 5879 5878 5878 5877 5876 5875 5875 5874 5873 5872 5872 5871 5870 5869 5869 5868 5868 5867 5867 5866 5866 5865 5865 5864 5863 5862 5861 5861 5861 5860 5860 5860 5859 5859 5859 5860 5860 5860 5860 5861
5882 5881 5880 5880 5879 5878 5877 5876 5876 5875 5874 5873 5872 5872 5871 5870 5869 5869 5868 5868 5867 5866 5865 5864 5864 5863 5863 5862 5861 5859 5859 5858 5857 5857 5856 5856 5856 5856 5856 5857 5857 5857 5857
5882 5881 5881 5880 5879 5879 5878 5877 5876 5875 5874 5873 5872 5871 5871 5870 5869 5868 5868 5867 5866 5865 5864 5863 5862 5861 5861 5860 5858 5857 5857 5856 5855 5854 5853 5853 5853 5853 5853 5853 5853 5853 5853
5883 5882 5881 5880 5879 5879 5878 5876 5875 5875 5874 5873 5872 5871 5870 5869 5868 5868 5867 5866 5865 5864 5863 5861 5860 5859 5858 5857 5856 5855 5854 5854 5853 5852 5851 5850 5849 5849 5849 5849 5849 5849 5849
5884 5883 5882 5881 5880 5879 5877 5876 5875 5874 5873 5873 5872 5871 5870 5869 5867 5866 5865 5864 5863 5862 5861 5860 5858 5857 5856 5855 5854 5853 5852 5851 5850 5849 5848 5847 5847 5846 5845 5845 5844 5844 5844
5884 5883 5882 5880 5879 5878 5877 5876 5875 5874 5873 5872 5871 5870 5869 5868 5867 5866 5864 5863 5862 5860 5859 5858 5856 5855 5853 5852 5851 5850 5849 5848 5846 5845 5844 5844 5843 5842 5841 5840 5839 5839 5840
5884 5883 5882 5880 5879 5877 5876 5875 5874 5873 5872 5871 5870 5869 5868 5867 5865 5864 5863 5861 5860 5858 5857 5855 5854 5852 5851 5849 5848 5847 5845 5844 5843 5842 5841 5840 5839 5838 5837 5836 5834 5833 5835
5884 5882 5881 5879 5878 5877 5875 5874 5873 5872 5871 5870 5869 5867 5866 5865 5863 5862 5860 5859 5857 5856 5854 5852 5851 5849 5848 5846 5844 5843 5841 5840 5839 5838 5837 5836 5834 5834 5832 5831 5830 5829 5830
5883 5881 5880 5878 5877 5875 5874 5873 5871 5870 5869 5868 5866 5865 5864 5862 5860 5859 5857 5856 5854 5852 5851 5849 5847 5846 5844 5842 5841 5839 5837 5836 5835 5833 5832 5831 5830 5829 5828 5827 5826 5825 5825
5881 5880 5878 5877 5875 5874 5872 5871 5869 5868 5867 5865 5863 5862 5860 5859 5857 5855 5854 5852 5850 5849 5847 5845 5843 5841 5839 5838 5836 5835 5833 5831 5830 5828 5827 5826 5824 5823 5822 5821 5821 5820 5819
5880 5878 5876 5875 5873 5871 5870 5868 5867 5865 5863 5862 5860 5858 5857 5855 5853 5851 5849 5848 5846 5844 5842 5840 5839 5837 5835 5833 5831 5830 5828 5826 5824 5823 5822 5820 5819 5818 5817 5816 5815 5814 5813
5877 5876 5874 5872 5871 5869 5867 5865 5864 5862 5860 5858 5856 5854 5852 5850 5848 5846 5844 5843 5841 5839 5838 5835 5833 5832 5830 5828 5826 5824 5822 5820 5819 5818 5816 5815 5813 5812 5810 5809 5809 5808 5807
5875 5873 5871 5869 5868 5866 5864 5862 5860 5858 5856 5854 5852 5850 5848 5846 5844 5841 5839 5837 5836 5834 5832 5830 5828 5826 5824 5822 5820 5818 5816 5814 5813 5811 5810 5808 5807 5806 5804 5803 5802 5801 5800
5871 5870 5868 5866 5864 5862 5860 5858 5856 5854 5852 5849 5847 5845 5843 5841 5839 5836 5834 5832 5830 5828 5826 5824 5822 5820 5818 5815 5813 5811 5809 5807 5806 5804 5803 5801 5800 5799 5797 5796 5795 5794 5793
5868 5866 5864 5862 5860 5858 5856 5854 5851 5849 5847 5845 5843 5840 5838 5836 5833 5831 5828 5826 5823 5821 5819 5817 5815 5813 5811 5808 5806 5804 5802 5800 5798 5797 5795 5794 5793 5791 5790 5789 5788 5786 5785
5863 5861 5859 5858 5855 5853 5851 5849 5847 5844 5842 5840 5837 5835 5832 5830 5827 5825 5822 5819 5817 5814 5812 5810 5807 5805 5803 5801 5799 5797 5794 5792 5791 5789 5787 5786 5785 5784 5782 5781 5780 5779 5778
5859 5857 5854 5852 5850 5848 5846 5843 5841 5838 5836 5834 5831 5828 5826 5823 5821 5818 5815 5813 5810 5807 5805 5802 5800 5797 5795 5793 5791 5788 5787 5784 5783 5781 5779 5778 5777 5776 5775 5774 5772 5771 5770
5854 5851 5849 5847 5844 5842 5839 5837 5834 5832 5829 5827 5824 5821 5819 5816 5814 5811 5808 5805 5803 5800 5798 5795 5792 5790 5787 5785 5782 5780 5778 5776 5774 5772 5771 5770 5768 5767 5766 5765 5764 5763 5762
5848 5845 5843 5841 5838 5835 5832 5830 5827 5824 5822 5819 5817 5814 5811 5809 5806 5804 5801 5798 5795 5793 5791 5788 5785 5782 5780 5777 5774 5772 5770 5768 5767 5765 5763 5761 5759 5758 5757 5756 5755 5754 5753
5841 5839 5836 5833 5831 5828 5825 5822 5820 5817 5814 5811 5809 5806 5803 5801 5798 5795 5793 5790 5788 5785 5783 5780 5777 5774 5772 5769 5767 5764 5762 5760 5758 5756 5754 5753 5751 5750 5748 5747 5747 5745 5744
5834 5831 5829 5826 5823 5820 5817 5815 5812 5809 5806 5803 5800 5798 5795 5792 5789 5787 5784 5782 5779 5777 5774 5771 5769 5766 5763 5760 5758 5756 5754 5752 5750 5748 5746 5745 5743 5742 5740 5739 5738 5737 5736
5826 5823 5821 5818 5815 5812 5809 5806 5803 5800 5797 5794 5792 5789 5786 5784 5781 5778 5776 5773 5770 5768 5765 5762 5760 5757 5755 5752 5749 5747 5745 5743 5741 5740 5738 5736 5735 5733 5732 5731 5729 5728 5727
5818 5815 5812 5810 5807 5804 5801 5798 5795 5792 5789 5786 5783 5780 5778 5775 5773 5770 5767 5764 5762 5759 5756 5754 5751 5749 5746 5743 5741 5739 5737 5735 5733 5732 5730 5728 5727 5725 5724 5722 5720 5719 5718